Time,TemperatureF,DewpointF,PressureIn,WindDirection,WindDirectionDegrees,WindSpeedMPH,WindSpeedGustMPH,Humidity,HourlyPrecipIn,Conditions,Clouds,dailyrainin,SoftwareType,DateUTC
2013-02-28 00:00:00,33.7,31.1,29.61,NNW,330,4.0,4.0,90,0.00,,,0.01,Wunderground v.1.15,2013-02-28 05:00:00,
2013-02-28 00:10:00,33.2,30.6,29.61,North,355,5.0,5.0,90,0.00,,,0.00,Wunderground v.1.15,2013-02-28 05:10:00,
2013-02-28 00:20:00,32.9,30.3,29.61,SW,221,3.0,3.0,90,0.00,,,0.00,Wunderground v.1.15,2013-02-28 05:20:00,
2013-02-28 00:30:00,32.7,30.1,29.61,NNW,340,5.0,5.0,90,0.00,,,0.00,Wunderground v.1.15,2013-02-28 05:30:00,
2013-02-28 00:40:00,32.5,29.9,29.60,NW,321,4.0,7.0,90,0.00,,,0.00,Wunderground v.1.15,2013-02-28 05:40:00,
2013-02-28 00:50:00,32.5,29.9,29.61,WSW,251,4.0,4.0,90,0.00,,,0.00,Wunderground v.1.15,2013-02-28 05:50:00,
2013-02-28 01:00:00,32.4,29.5,29.61,NW,315,4.0,4.0,89,0.00,,,0.00,Wunderground v.1.15,2013-02-28 06:00:00,
2013-02-28 01:10:00,32.3,29.4,29.60,West,265,4.0,4.0,89,0.00,,,0.00,Wunderground v.1.15,2013-02-28 06:10:00,
2013-02-28 01:20:00,32.3,29.4,29.60,NNW,332,2.0,5.0,89,0.00,,,0.00,Wunderground v.1.15,2013-02-28 06:20:00,
2013-02-28 01:30:00,32.2,29.3,29.60,NNW,345,3.0,3.0,89,0.00,,,0.00,Wunderground v.1.15,2013-02-28 06:30:00,
2013-02-28 01:40:00,32.1,29.2,29.60,NNW,331,4.0,4.0,89,0.00,,,0.00,Wunderground v.1.15,2013-02-28 06:40:00,
2013-02-28 01:50:00,32.1,29.2,29.60,WNW,285,2.0,4.0,89,0.00,,,0.00,Wunderground v.1.15,2013-02-28 06:50:00,
2013-02-28 02:00:00,32.0,28.8,29.60,WSW,257,4.0,4.0,88,0.00,,,0.00,Wunderground v.1.15,2013-02-28 07:00:00,
2013-02-28 02:10:00,31.9,28.8,29.60,North,349,3.0,10.0,88,0.00,,,0.00,Wunderground v.1.15,2013-02-28 07:10:00,
2013-02-28 02:20:00,31.8,28.4,29.60,NNW,338,6.0,6.0,87,0.00,,,0.00,Wunderground v.1.15,2013-02-28 07:20:00,
2013-02-28 02:30:00,31.7,28.3,29.59,NNE,15,5.0,5.0,87,0.00,,,0.00,Wunderground v.1.15,2013-02-28 07:30:00,
2013-02-28 02:40:00,31.5,27.8,29.60,NNW,330,4.0,8.0,86,0.00,,,0.00,Wunderground v.1.15,2013-02-28 07:40:00,
2013-02-28 02:50:00,31.4,27.1,29.59,WNW,301,6.0,9.0,84,0.00,,,0.00,Wunderground v.1.15,2013-02-28 07:50:00,
2013-02-28 03:00:00,31.4,26.8,29.59,WSW,244,5.0,5.0,83,0.00,,,0.00,Wunderground v.1.15,2013-02-28 08:00:00,
2013-02-28 03:10:00,31.3,26.4,29.59,NW,306,6.0,6.0,82,0.00,,,0.00,Wunderground v.1.15,2013-02-28 08:10:00,
2013-02-28 03:20:00,31.2,26.3,29.59,NW,317,4.0,4.0,82,0.00,,,0.00,Wunderground v.1.15,2013-02-28 08:20:00,
2013-02-28 03:30:00,31.1,26.5,29.59,NW,313,3.0,3.0,83,0.00,,,0.00,Wunderground v.1.15,2013-02-28 08:30:00,
2013-02-28 03:40:00,31.0,26.4,29.59,NNW,333,2.0,2.0,83,0.00,,,0.00,Wunderground v.1.15,2013-02-28 08:40:00,
2013-02-28 03:50:00,31.0,26.4,29.60,SSW,209,2.0,2.0,83,0.00,,,0.00,Wunderground v.1.15,2013-02-28 08:50:00,
2013-02-28 04:00:00,31.0,26.4,29.60,NNW,331,1.0,2.0,83,0.00,,,0.00,Wunderground v.1.15,2013-02-28 09:00:00,
2013-02-28 04:10:00,30.8,26.8,29.60,NW,326,3.0,3.0,85,0.00,,,0.00,Wunderground v.1.15,2013-02-28 09:10:00,
2013-02-28 04:20:00,30.5,26.8,29.60,NW,315,2.0,5.0,86,0.00,,,0.00,Wunderground v.1.15,2013-02-28 09:20:00,
2013-02-28 04:30:00,30.2,26.5,29.60,NW,310,3.0,3.0,86,0.00,,,0.00,Wunderground v.1.15,2013-02-28 09:30:00,
2013-02-28 04:40:00,30.0,26.6,29.60,NNW,327,3.0,3.0,87,0.00,,,0.00,Wunderground v.1.15,2013-02-28 09:40:00,
2013-02-28 04:50:00,29.9,26.5,29.60,NNW,333,1.0,1.0,87,0.00,,,0.00,Wunderground v.1.15,2013-02-28 09:50:00,
2013-02-28 05:00:00,29.8,26.4,29.60,NW,323,2.0,2.0,87,0.00,,,0.00,Wunderground v.1.15,2013-02-28 10:00:00,
2013-02-28 05:10:00,29.8,26.4,29.60,WNW,297,1.0,1.0,87,0.00,,,0.00,Wunderground v.1.15,2013-02-28 10:10:00,
2013-02-28 05:20:00,29.8,26.4,29.60,West,271,1.0,1.0,87,0.00,,,0.00,Wunderground v.1.15,2013-02-28 10:20:00,
2013-02-28 05:30:00,29.8,26.4,29.60,West,272,1.0,1.0,87,0.00,,,0.00,Wunderground v.1.15,2013-02-28 10:30:00,
2013-02-28 05:40:00,29.8,26.4,29.61,NW,309,1.0,1.0,87,0.00,,,0.00,Wunderground v.1.15,2013-02-28 10:40:00,
2013-02-28 05:50:00,29.7,26.3,29.61,NNW,342,0.0,1.0,87,0.00,,,0.00,Wunderground v.1.15,2013-02-28 10:50:00,
2013-02-28 06:00:00,29.7,26.6,29.61,WNW,286,1.0,1.0,88,0.00,,,0.00,Wunderground v.1.15,2013-02-28 11:00:00,
2013-02-28 06:10:00,29.7,26.6,29.61,WNW,286,1.0,1.0,88,0.00,,,0.00,Wunderground v.1.15,2013-02-28 11:10:00,
2013-02-28 06:20:00,29.7,26.6,29.60,WNW,286,0.0,0.0,88,0.00,,,0.00,Wunderground v.1.15,2013-02-28 11:20:00,
2013-02-28 06:30:00,29.6,26.8,29.60,South,169,0.0,0.0,89,0.00,,,0.00,Wunderground v.1.15,2013-02-28 11:30:00,
2013-02-28 06:40:00,29.6,26.8,29.61,South,169,0.0,0.0,89,0.00,,,0.00,Wunderground v.1.15,2013-02-28 11:40:00,
2013-02-28 06:50:00,29.6,26.8,29.61,WNW,299,0.0,0.0,89,0.00,,,0.00,Wunderground v.1.15,2013-02-28 11:50:00,
2013-02-28 07:00:00,29.6,26.8,29.61,WNW,298,2.0,2.0,89,0.00,,,0.00,Wunderground v.1.15,2013-02-28 12:00:00,
2013-02-28 07:10:00,29.6,26.8,29.61,WNW,286,1.0,2.0,89,0.00,,,0.00,Wunderground v.1.15,2013-02-28 12:10:00,
2013-02-28 07:20:00,29.8,26.7,29.61,South,186,2.0,2.0,88,0.00,,,0.00,Wunderground v.1.15,2013-02-28 12:20:00,
2013-02-28 07:30:00,29.9,26.5,29.61,West,268,3.0,5.0,87,0.00,,,0.00,Wunderground v.1.15,2013-02-28 12:30:00,
2013-02-28 07:40:00,30.1,26.1,29.61,NW,304,4.0,7.0,85,0.00,,,0.00,Wunderground v.1.15,2013-02-28 12:40:00,
2013-02-28 07:50:00,30.3,25.8,29.62,WNW,303,4.0,4.0,83,0.00,,,0.00,Wunderground v.1.15,2013-02-28 12:50:00,
2013-02-28 08:00:00,30.5,25.7,29.62,NW,309,4.0,4.0,82,0.00,,,0.00,Wunderground v.1.15,2013-02-28 13:00:00,
2013-02-28 08:10:00,30.7,25.3,29.62,WSW,249,4.0,4.0,80,0.00,,,0.00,Wunderground v.1.15,2013-02-28 13:10:00,
2013-02-28 08:20:00,31.0,25.2,29.62,NW,325,3.0,3.0,79,0.00,,,0.00,Wunderground v.1.15,2013-02-28 13:20:00,
2013-02-28 08:30:00,31.4,25.0,29.63,NW,304,4.0,4.0,77,0.00,,,0.00,Wunderground v.1.15,2013-02-28 13:30:00,
2013-02-28 08:40:00,31.7,24.7,29.63,West,280,5.0,8.0,75,0.00,,,0.00,Wunderground v.1.15,2013-02-28 13:40:00,
2013-02-28 08:50:00,31.7,24.7,29.63,North,360,4.0,4.0,75,0.00,,,0.00,Wunderground v.1.15,2013-02-28 13:50:00,
2013-02-28 09:00:00,31.5,24.8,29.64,NW,311,3.0,3.0,76,0.00,,,0.00,Wunderground v.1.15,2013-02-28 14:00:00,
2013-02-28 09:10:00,31.4,25.9,29.64,NNW,336,3.0,3.0,80,0.00,,,0.00,Wunderground v.1.15,2013-02-28 14:10:00,
2013-02-28 09:20:00,31.1,26.0,29.64,NNW,336,4.0,7.0,81,0.00,,,0.00,Wunderground v.1.15,2013-02-28 14:20:00,
2013-02-28 09:30:00,30.6,26.1,29.64,NNW,331,4.0,4.0,83,0.00,,,0.00,Wunderground v.1.15,2013-02-28 14:30:00,
2013-02-28 09:40:00,30.4,26.1,29.64,West,273,3.0,4.0,84,0.00,,,0.00,Wunderground v.1.15,2013-02-28 14:40:00,
2013-02-28 09:50:00,30.4,26.1,29.65,SW,218,3.0,3.0,84,0.00,,,0.00,Wunderground v.1.15,2013-02-28 14:50:00,
2013-02-28 10:00:00,30.4,26.4,29.65,NW,310,2.0,2.0,85,0.00,,,0.00,Wunderground v.1.15,2013-02-28 15:00:00,
2013-02-28 10:10:00,29.9,26.2,29.65,SSW,210,4.0,4.0,86,0.00,,,0.00,Wunderground v.1.15,2013-02-28 15:10:00,
2013-02-28 10:20:00,29.6,25.9,29.65,NW,309,4.0,7.0,86,0.00,,,0.00,Wunderground v.1.15,2013-02-28 15:20:00,
2013-02-28 10:30:00,29.7,25.7,29.65,West,269,4.0,4.0,85,0.00,,,0.00,Wunderground v.1.15,2013-02-28 15:30:00,
2013-02-28 10:40:00,29.7,25.5,29.65,West,269,4.0,4.0,84,0.00,,,0.00,Wunderground v.1.15,2013-02-28 15:40:00,
2013-02-28 10:50:00,29.9,25.4,29.65,WNW,288,4.0,4.0,83,0.00,,,0.00,Wunderground v.1.15,2013-02-28 15:50:00,
2013-02-28 11:00:00,30.1,25.0,29.66,NW,323,6.0,6.0,81,0.00,,,0.00,Wunderground v.1.15,2013-02-28 16:00:00,
2013-02-28 11:10:00,30.7,25.6,29.66,WSW,257,5.0,5.0,81,0.00,,,0.00,Wunderground v.1.15,2013-02-28 16:10:00,
2013-02-28 11:20:00,30.9,25.2,29.66,SW,233,3.0,3.0,79,0.00,,,0.00,Wunderground v.1.15,2013-02-28 16:20:00,
2013-02-28 11:30:00,31.1,25.7,29.66,NNW,327,3.0,3.0,80,0.00,,,0.00,Wunderground v.1.15,2013-02-28 16:30:00,
2013-02-28 11:40:00,31.2,25.7,29.66,NW,322,2.0,2.0,80,0.00,,,0.00,Wunderground v.1.15,2013-02-28 16:40:00,
2013-02-28 11:50:00,30.9,25.5,29.66,WNW,293,4.0,4.0,80,0.00,,,0.00,Wunderground v.1.15,2013-02-28 16:50:00,
2013-02-28 12:00:00,31.1,26.2,29.66,West,275,3.0,3.0,82,0.00,,,0.00,Wunderground v.1.15,2013-02-28 17:00:00,
2013-02-28 12:10:00,30.7,25.6,29.66,NNW,333,5.0,6.0,81,0.00,,,0.01,Wunderground v.1.15,2013-02-28 17:10:00,
2013-02-28 12:20:00,30.8,25.7,29.66,West,275,5.0,5.0,81,0.00,,,0.01,Wunderground v.1.15,2013-02-28 17:20:00,
2013-02-28 12:30:00,31.3,25.8,29.66,WSW,246,3.0,3.0,80,0.00,,,0.01,Wunderground v.1.15,2013-02-28 17:30:00,
2013-02-28 12:40:00,31.5,25.7,29.65,NW,315,4.0,4.0,79,0.00,,,0.01,Wunderground v.1.15,2013-02-28 17:40:00,
2013-02-28 12:50:00,31.9,26.1,29.65,West,269,2.0,4.0,79,0.00,,,0.01,Wunderground v.1.15,2013-02-28 17:50:00,
2013-02-28 13:00:00,32.1,26.0,29.66,WNW,297,4.0,5.0,78,0.00,,,0.01,Wunderground v.1.15,2013-02-28 18:00:00,
2013-02-28 13:10:00,32.1,26.0,29.65,NNW,328,4.0,4.0,78,0.00,,,0.01,Wunderground v.1.15,2013-02-28 18:10:00,
2013-02-28 13:20:00,32.3,25.9,29.66,WNW,295,5.0,6.0,77,0.00,,,0.01,Wunderground v.1.15,2013-02-28 18:20:00,
2013-02-28 13:30:00,32.7,26.0,29.66,NW,326,6.0,6.0,76,0.00,,,0.01,Wunderground v.1.15,2013-02-28 18:30:00,
2013-02-28 13:40:00,32.9,25.8,29.66,NW,309,4.0,6.0,75,0.00,,,0.01,Wunderground v.1.15,2013-02-28 18:40:00,
2013-02-28 13:50:00,32.7,26.0,29.66,West,272,5.0,5.0,76,0.00,,,0.01,Wunderground v.1.15,2013-02-28 18:50:00,
2013-02-28 14:00:00,32.8,25.7,29.66,NW,322,6.0,6.0,75,0.00,,,0.01,Wunderground v.1.15,2013-02-28 19:00:00,
2013-02-28 14:10:00,32.5,25.8,29.66,NW,315,5.0,5.0,76,0.00,,,0.01,Wunderground v.1.15,2013-02-28 19:10:00,
2013-02-28 14:20:00,32.1,25.1,29.66,NW,309,5.0,5.0,75,0.00,,,0.01,Wunderground v.1.15,2013-02-28 19:20:00,
2013-02-28 14:30:00,31.9,25.2,29.66,North,349,5.0,7.0,76,0.00,,,0.01,Wunderground v.1.15,2013-02-28 19:30:00,
2013-02-28 14:40:00,31.6,25.2,29.66,SSW,196,6.0,7.0,77,0.00,,,0.01,Wunderground v.1.15,2013-02-28 19:40:00,
2013-02-28 14:50:00,31.3,25.2,29.67,NW,304,5.0,5.0,78,0.00,,,0.01,Wunderground v.1.15,2013-02-28 19:50:00,
2013-02-28 15:00:00,31.1,25.0,29.67,NNW,332,4.0,4.0,78,0.00,,,0.01,Wunderground v.1.15,2013-02-28 20:00:00,
2013-02-28 15:10:00,31.0,25.2,29.67,NW,325,4.0,4.0,79,0.00,,,0.01,Wunderground v.1.15,2013-02-28 20:10:00,
2013-02-28 15:20:00,30.9,25.2,29.67,NW,325,4.0,10.0,79,0.00,,,0.01,Wunderground v.1.15,2013-02-28 20:20:00,
2013-02-28 15:30:00,30.9,25.5,29.67,West,263,4.0,4.0,80,0.00,,,0.01,Wunderground v.1.15,2013-02-28 20:30:00,
2013-02-28 15:40:00,30.8,25.4,29.68,NW,309,5.0,7.0,80,0.00,,,0.01,Wunderground v.1.15,2013-02-28 20:40:00,
2013-02-28 15:50:00,30.7,25.6,29.68,West,273,4.0,4.0,81,0.00,,,0.01,Wunderground v.1.15,2013-02-28 20:50:00,
2013-02-28 16:00:00,30.7,25.6,29.68,WNW,302,4.0,4.0,81,0.00,,,0.01,Wunderground v.1.15,2013-02-28 21:00:00,
2013-02-28 16:10:00,30.7,25.6,29.67,West,269,4.0,5.0,81,0.00,,,0.01,Wunderground v.1.15,2013-02-28 21:10:00,
2013-02-28 16:20:00,30.5,25.7,29.68,North,349,4.0,4.0,82,0.00,,,0.01,Wunderground v.1.15,2013-02-28 21:20:00,
2013-02-28 16:30:00,30.3,25.5,29.68,NW,323,5.0,8.0,82,0.00,,,0.01,Wunderground v.1.15,2013-02-28 21:30:00,
2013-02-28 16:40:00,30.2,25.7,29.68,NW,318,4.0,6.0,83,0.00,,,0.01,Wunderground v.1.15,2013-02-28 21:40:00,
2013-02-28 16:50:00,30.0,25.5,29.68,NW,325,6.0,6.0,83,0.00,,,0.01,Wunderground v.1.15,2013-02-28 21:50:00,
2013-02-28 17:00:00,29.9,25.7,29.69,NW,309,6.0,6.0,84,0.00,,,0.01,Wunderground v.1.15,2013-02-28 22:00:00,
2013-02-28 17:10:00,29.8,25.6,29.69,WNW,301,4.0,4.0,84,0.00,,,0.01,Wunderground v.1.15,2013-02-28 22:10:00,
2013-02-28 17:20:00,29.8,25.8,29.70,WSW,253,3.0,3.0,85,0.00,,,0.01,Wunderground v.1.15,2013-02-28 22:20:00,
2013-02-28 17:30:00,29.9,25.9,29.70,NNW,333,3.0,3.0,85,0.00,,,0.01,Wunderground v.1.15,2013-02-28 22:30:00,
2013-02-28 17:40:00,29.8,25.8,29.71,NW,304,4.0,8.0,85,0.00,,,0.01,Wunderground v.1.15,2013-02-28 22:40:00,
2013-02-28 17:50:00,29.8,25.8,29.71,West,279,3.0,3.0,85,0.00,,,0.01,Wunderground v.1.15,2013-02-28 22:50:00,
2013-02-28 18:00:00,29.8,25.8,29.72,NW,311,4.0,5.0,85,0.00,,,0.01,Wunderground v.1.15,2013-02-28 23:00:00,
2013-02-28 18:10:00,29.8,25.8,29.72,WNW,284,4.0,11.0,85,0.00,,,0.01,Wunderground v.1.15,2013-02-28 23:10:00,
2013-02-28 18:20:00,29.8,25.8,29.73,WSW,244,5.0,5.0,85,0.00,,,0.01,Wunderground v.1.15,2013-02-28 23:20:00,
2013-02-28 18:30:00,29.9,25.9,29.73,NW,318,4.0,4.0,85,0.00,,,0.01,Wunderground v.1.15,2013-02-28 23:30:00,
2013-02-28 18:40:00,29.9,25.9,29.73,West,267,4.0,4.0,85,0.00,,,0.01,Wunderground v.1.15,2013-02-28 23:40:00,
2013-02-28 18:50:00,29.9,25.9,29.74,WNW,303,5.0,6.0,85,0.00,,,0.01,Wunderground v.1.15,2013-02-28 23:50:00,
2013-02-28 19:00:00,29.9,26.2,29.74,NW,322,4.0,4.0,86,0.00,,,0.01,Wunderground v.1.15,2013-03-01 00:00:00,
2013-02-28 19:10:00,29.8,26.1,29.74,NW,307,4.0,6.0,86,0.00,,,0.01,Wunderground v.1.15,2013-03-01 00:10:00,
2013-02-28 19:20:00,29.8,26.1,29.74,North,360,4.0,4.0,86,0.00,,,0.01,Wunderground v.1.15,2013-03-01 00:20:00,
2013-02-28 19:30:00,29.8,26.1,29.75,WNW,294,3.0,3.0,86,0.00,,,0.01,Wunderground v.1.15,2013-03-01 00:30:00,
2013-02-28 19:40:00,29.7,26.0,29.75,NW,318,6.0,7.0,86,0.00,,,0.01,Wunderground v.1.15,2013-03-01 00:40:00,
2013-02-28 19:50:00,29.7,26.0,29.75,WNW,291,5.0,5.0,86,0.00,,,0.01,Wunderground v.1.15,2013-03-01 00:50:00,
2013-02-28 20:00:00,29.7,26.0,29.75,NW,313,5.0,5.0,86,0.00,,,0.01,Wunderground v.1.15,2013-03-01 01:00:00,
2013-02-28 20:10:00,29.7,26.0,29.75,NW,321,5.0,5.0,86,0.00,,,0.01,Wunderground v.1.15,2013-03-01 01:10:00,
2013-02-28 20:20:00,29.8,26.1,29.75,NNW,346,4.0,4.0,86,0.00,,,0.01,Wunderground v.1.15,2013-03-01 01:20:00,
2013-02-28 20:30:00,29.8,26.1,29.74,West,259,3.0,3.0,86,0.00,,,0.01,Wunderground v.1.15,2013-03-01 01:30:00,
2013-02-28 20:40:00,29.8,25.8,29.75,South,174,5.0,5.0,85,0.00,,,0.01,Wunderground v.1.15,2013-03-01 01:40:00,
2013-02-28 20:50:00,29.8,25.8,29.74,WNW,286,4.0,4.0,85,0.00,,,0.01,Wunderground v.1.15,2013-03-01 01:50:00,
2013-02-28 21:00:00,29.9,25.9,29.75,NNW,330,3.0,9.0,85,0.00,,,0.01,Wunderground v.1.15,2013-03-01 02:00:00,
2013-02-28 21:10:00,29.9,25.9,29.75,West,281,4.0,7.0,85,0.00,,,0.01,Wunderground v.1.15,2013-03-01 02:10:00,
2013-02-28 21:20:00,30.0,26.0,29.75,NNW,334,3.0,3.0,85,0.00,,,0.01,Wunderground v.1.15,2013-03-01 02:20:00,
2013-02-28 21:30:00,30.0,26.0,29.75,West,280,3.0,3.0,85,0.00,,,0.01,Wunderground v.1.15,2013-03-01 02:30:00,
2013-02-28 21:40:00,30.1,26.1,29.75,NW,316,3.0,7.0,85,0.00,,,0.01,Wunderground v.1.15,2013-03-01 02:40:00,
2013-02-28 21:50:00,30.1,26.1,29.75,ESE,114,2.0,2.0,85,0.00,,,0.01,Wunderground v.1.15,2013-03-01 02:50:00,
2013-02-28 22:00:00,30.1,26.1,29.76,WNW,292,3.0,6.0,85,0.00,,,0.01,Wunderground v.1.15,2013-03-01 03:00:00,
2013-02-28 22:10:00,30.1,26.1,29.76,NW,321,3.0,3.0,85,0.00,,,0.01,Wunderground v.1.15,2013-03-01 03:10:00,
2013-02-28 22:20:00,30.1,26.1,29.76,SSW,209,4.0,8.0,85,0.00,,,0.01,Wunderground v.1.15,2013-03-01 03:20:00,
2013-02-28 22:30:00,30.1,26.1,29.75,NNW,340,5.0,11.0,85,0.00,,,0.01,Wunderground v.1.15,2013-03-01 03:30:00,
2013-02-28 22:40:00,30.1,26.4,29.75,NNW,331,7.0,11.0,86,0.00,,,0.01,Wunderground v.1.15,2013-03-01 03:40:00,
2013-02-28 22:50:00,30.0,26.3,29.76,NNW,345,6.0,7.0,86,0.00,,,0.01,Wunderground v.1.15,2013-03-01 03:50:00,
2013-02-28 23:00:00,29.9,26.2,29.76,NW,315,4.0,5.0,86,0.00,,,0.01,Wunderground v.1.15,2013-03-01 04:00:00,
2013-02-28 23:10:00,29.9,26.5,29.76,NW,306,6.0,6.0,87,0.00,,,0.01,Wunderground v.1.15,2013-03-01 04:10:00,
2013-02-28 23:20:00,29.9,26.5,29.76,NW,313,6.0,6.0,87,0.00,,,0.01,Wunderground v.1.15,2013-03-01 04:20:00,
2013-02-28 23:30:00,29.9,26.5,29.76,WNW,298,6.0,6.0,87,0.00,,,0.01,Wunderground v.1.15,2013-03-01 04:30:00,
2013-02-28 23:40:00,29.9,26.8,29.76,WNW,294,6.0,6.0,88,0.00,,,0.01,Wunderground v.1.15,2013-03-01 04:40:00,
2013-02-28 23:50:00,29.8,26.7,29.76,SW,217,5.0,5.0,88,0.00,,,0.01,Wunderground v.1.15,2013-03-01 04:50:00,